Regional Weather Roundup
Issued by NWS

Home | Current Version | Previous Version | Graphics & Text | Print | Product List | Glossary Off
Versions: 1 2 3 4 5 6 7 8 9 10 11 12 13 14 15 16 17 18 19 20 21 22 23 24 25 26 27 28 29 30 31 32 33 34 35 36 37 38 39 40 41 42 43 44 45 46 47 48 49 50

000
ASUS43 KMKX 302321
RWRWI

WISCONSIN REGIONAL WEATHER ROUNDUP
NATIONAL WEATHER SERVICE MILWAUKEE/SULLIVAN WI
600 PM CDT SAT AUG 30 2014

NOTE: "FAIR" INDICATES FEW OR NO CLOUDS BELOW 12,000 FEET WITH NO
SIGNIFICANT WEATHER AND/OR OBSTRUCTIONS TO VISIBILITY.

WIZ001-002-006>008-014>016-023>028-310000-
NORTHWEST WISCONSIN

CITY           SKY/WX    TMP DP  RH WIND       PRES   REMARKS
SUPERIOR ARPT  CLOUDY    64  61  90 NE6       29.88R
ASHLAND        CLOUDY    62  58  86 NE5       29.90S
HAYWARD        CLOUDY    64  59  83 N6        29.90R
SIREN          SUNNY     70  59  68 E6        29.87S
RICE LAKE      PTSUNNY   67  58  74 CALM      29.89S
LADYSMITH      PTSUNNY   69  59  71 N6        29.88F
EAU CLAIRE     CLOUDY    67  62  84 N5        29.86S
MENOMONIE      CLOUDY    68  60  76 N6        29.87S
NEW RICHMOND   PTSUNNY   71  59  66 E6        29.87F
OSCEOLA        PTSUNNY   71  64  78 E7        29.88F
$$

WIZ003>005-009-010-017-018-310000-
NORTH CENTRAL WISCONSIN

CITY           SKY/WX    TMP DP  RH WIND       PRES   REMARKS
WOODRUFF       CLOUDY    62  58  87 N12G17    29.88R
RHINELANDER    CLOUDY    61  58  90 N7        29.86S
EAGLE RIVER    CLOUDY    61  59  94 N9        29.86S
LAND O LAKES   CLOUDY    59  57  92 N9        29.88R
PHILLIPS       PTSUNNY   64  58  82 N5        29.87S
TOMAHAWK       CLOUDY    62  58  87 NW5       29.87R
MEDFORD        CLOUDY    63  60  90 NW9       29.88R
MERRILL        CLOUDY    64  61  91 N8        29.86R
$$

WIZ029-030-035-036-043>047-310000-
CENTRAL WISCONSIN

CITY           SKY/WX    TMP DP  RH WIND       PRES   REMARKS
WAUSAU         CLOUDY    68  61  78 NW8       29.83R
MOSINEE        CLOUDY    70  64  83 N9        29.85R
MARSHFIELD     CLOUDY    70  63  78 N10       29.85R
STEVENS POINT  MOSUNNY   70  62  76 NW8       29.83R
WAUPACA        MOSUNNY   76  67  74 W7        29.80S
WAUTOMA        LGT RAIN  75  68  79 N5        29.82R
WISC RAPIDS    CLOUDY    74  65  73 NW12      29.84R
CAMP DOUGLAS   MOSUNNY   75  69  82 NW12      29.84R
$$

WIZ011>013-019>022-031-037>040-048>050-310000-
NORTHEAST WISCONSIN

CITY           SKY/WX    TMP DP  RH WIND       PRES   REMARKS
ANTIGO         CLOUDY    63  61  93 NW8       29.85R
STURGEON BAY   CLOUDY    72  64  78 NW5       29.78R
GREEN BAY      CLOUDY    73  68  84 W8        29.78R
MANITOWOC      CLOUDY    76  68  76 W13       29.77S
APPLETON       PTSUNNY   72  63  73 W9        29.80R
CLINTONVILLE   HVY RAIN  70  66  88 N5        29.80R
OSHKOSH        PTSUNNY   74  67  78 NW8       29.80R
$$

WIZ032>034-041-042-053>061-310000-
SOUTHWEST WISCONSIN

CITY           SKY/WX    TMP DP  RH WIND       PRES   REMARKS
LA CROSSE      MOSUNNY   78  65  63 N9        29.83S HX  80
SPARTA         PTSUNNY   74  64  69 W7        29.85S
VIROQUA        FAIR      74  64  70 NW6       29.86R
BOSCOBEL       PTSUNNY   81  66  60 NW6       29.83S HX  83
PRAIRIE DU CHI SUNNY     80  62  53 W6        29.83R HX  82
PLATTEVILLE    FAIR      78  69  73 CALM      29.86S HX  80
$$

WIZ056-057-062-063-064-067-068-310000-
SOUTH CENTRAL WISCONSIN

CITY           SKY/WX    TMP DP  RH WIND       PRES   REMARKS
BARABOO/DELLS  MOSUNNY   78  63  59 W5        29.83R
LONE ROCK      MOSUNNY   83  67  58 W9        29.82S HX  85
WATERTOWN      MOSUNNY   78  68  72 W6        29.82R
MADISON        MOSUNNY   80  65  59 CALM      29.82S HX  82
MIDDLETON      FAIR      79  65  60 W8        29.84R HX  81
MONROE         SUNNY     79  66  65 SW14      29.85R HX  81
JANESVILLE     PTSUNNY   79  64  61 W9        29.83S HX  81
$$

WIZ051-052-058>065-066-070>072-310000-
SOUTHEAST WISCONSIN

CITY           SKY/WX    TMP DP  RH WIND       PRES   REMARKS
MILWAUKEE      PTSUNNY   77  70  79 W9        29.82R
WAUKESHA       MOSUNNY   73  68  83 W9        29.83S
MILWAUKEE/TIMM SUNNY     75  66  73 W14       29.81F
RACINE         SUNNY     79  68  69 W8        29.83S HX  81
BURLINGTON     MOSUNNY   76  65  69 SW9       29.83R
KENOSHA        MOSUNNY   78  68  71 W15       29.83R HX  80
FOND DU LAC    CLOUDY    73  66  78 N7        29.81R
SHEBOYGAN      LGT RAIN  70  67  90 W5        29.80R
WEST BEND      MOSUNNY   73  63  68 W9        29.81R
JUNEAU         MOSUNNY   75  66  72 W10       29.83R
$$

LSZ147-162-310000-
LAKE SUPERIOR

STATION/POSITION TIME  TEMP    WIND        PRES    WAVE
                       AIR SEA DIR/SP/G            HT/PER
                 (UTC) (F)     (DEG/KT/KT) (MB)    (FT/S)
W MID LAKE BUOY  2250   59 58  270/  2/  2 1011.7S   1/ 4
DEVILS ISLAND    2300   61     100/  6/  7 1012.1F
PORT WING        2200   66     100/  3/  7 1012.2
SAXON HARBOR     2240   62      50/  5/  8 1012.2R
$$

LMZ867-665-643>646-310000-
LAKE MICHIGAN

STATION/POSITION TIME  TEMP    WIND        PRES    WAVE
                       AIR SEA DIR/SP/G            HT/PER
                 (UTC) (F)     (DEG/KT/KT) (MB)    (FT/S)
N MID LAKE BUOY  2250   65 65  320/ 19/ 23 1006.1R   4/ 6
NORTHPORT PIER   2200   66     320/ 16/ 20 1007.1
KEWAUNEE LAKESHO 2300   76     300/  5/  7 1007.3R
SHEBOYGAN LAKESH 2300   70 55  260/  8/ 10 1008.8R
ATWATER BUOY     2300   72     240/  8/ 10 1010.6R
MILWAUKEE LAKESH 2300   76     250/ 11/ 14   N/A
S MID LAKE BUOY  2250   73 69  230/ 10/ 10 1009.8R   2/ 5
KENOSHA   LAKESH 2300   80     240/ 15/ 24 1009.5R
$$

TC  - TEMPERATURE IN CELSIUS
VSB - VISIBILITY IN STATUTE MILES
WCI - WIND CHILL INDEX
HX  - HEAT INDEX



USA.gov is the U.S. government's official web portal to all federal, state and local government web resources and services.